QPF
0.00 0.00 0.00 0.00 0.00 0.00 0.00 0.00 0.00 0.00 0.00 0.00 0.00 0.00 0.00 0.00 0.00 0.00 0.00 0.00 0.00 0.00 0.00 0.00 0.00 0.00 0.00 0.00 0.00 0.00 0.00 0.00 0.00 0.00 0.00 0.00 0.00 0.00 0.00 0.00 0.00 0.00 0.00 0.00
0.00 0.00 0.00 0.00 0.00 0.00 0.00 0.00 0.01 0.00 0.00 0.00 0.00 0.00 0.00 0.00 0.00 0.00 0.00 0.00 0.00 0.00 0.00 0.00 0.00 0.00 0.00 0.00 0.00 0.00 0.00 0.00 0.00 0.00 0.00 0.00 0.00 0.00 0.00 0.00 0.00 0.00 0.00 0.00
0.00 0.00 0.00 0.00 0.00 0.00 0.00 0.00 0.00 0.00 0.00 0.00 0.00 0.00 0.00 0.00 0.00 0.00 0.00 0.00 0.00 0.00 0.00 0.00 0.00 0.00 0.00 0.00 0.00 0.00 0.00 0.00 0.00 0.00 0.00 0.00 0.00 0.00 0.00 0.00 0.00 0.00 0.00 0.00
0.00 0.00 0.00 0.00 0.00 0.00 0.00 0.00 0.00 0.00 0.00 0.00 0.00 0.00 0.00 0.00 0.00 0.00 0.00 0.00 0.00 0.00 0.00 0.00 0.00 0.00 0.00 0.00 0.00 0.00 0.00 0.00 0.00 0.00 0.00 0.00 0.00 0.00 0.00 0.00 0.00 0.00 0.00 0.05
0.00 0.00 0.00 0.00 0.00 0.00 0.00 0.00 0.00 0.00 0.00 0.00 0.01 0.00 0.00 0.00 0.00 0.00 0.00 0.00 0.00 0.00 0.00 0.00 0.00 0.00 0.00 0.00 0.00 0.00 0.00 0.00 0.00 0.00 0.00 0.00 0.00 0.00 0.00 0.00 0.00 0.00 0.04 0.09
0.00 0.00 0.00 0.00 0.00 0.00 0.00 0.00 0.00 0.00 0.00 0.00 0.02 0.00 0.00 0.00 0.00 0.00 0.00 0.00 0.00 0.00 0.00 0.00 0.00 0.00 0.00 0.00 0.00 0.00 0.00 0.00 0.00 0.00 0.00 0.00 0.00 0.00 0.00 0.00 0.00 0.00 0.07 0.10
0.00 0.00 0.00 0.00 0.00 0.00 0.00 0.00 0.00 0.00 0.00 0.01 0.00 0.00 0.00 0.00 0.00 0.00 0.00 0.00 0.00 0.00 0.00 0.00 0.00 0.00 0.00 0.00 0.00 0.00 0.00 0.00 0.00 0.00 0.00 0.00 0.00 0.00 0.00 0.00 0.00 0.00 0.00 0.01
0.00 0.00 0.00 0.00 0.00 0.00 0.00 0.00 0.00 0.00 0.00 0.01 0.00 0.00 0.00 0.00 0.00 0.00 0.00 0.00 0.00 0.00 0.00 0.00 0.00 0.00 0.00 0.00 0.00 0.00 0.00 0.00 0.00 0.00 0.00 0.00 0.00 0.00 0.00 0.00 0.00 0.00 0.00 0.00
0.00 0.00 0.00 0.00 0.00 0.00 0.00 0.00 0.00 0.00 0.00 0.00 0.00 0.00 0.00 0.00 0.00 0.00 0.00 0.00 0.00 0.00 0.00 0.00 0.00 0.00 0.00 0.00 0.00 0.00 0.00 0.00 0.00 0.00 0.00 0.00 0.00 0.00 0.00 0.00 0.00 0.00 0.00 0.00
0.00 0.00 0.00 0.00 0.00 0.00 0.00 0.00 0.00 0.00 0.00 0.00 0.00 0.00 0.00 0.00 0.00 0.00 0.00 0.00 0.00 0.00 0.00 0.00 0.00 0.00 0.00 0.00 0.00 0.00 0.00 0.00 0.00 0.00 0.00 0.00 0.00 0.00 0.00 0.00 0.00 0.00 0.00 0.00
0.00 0.00 0.00 0.00 0.00 0.00 0.00 0.00 0.00 0.00 0.00 0.00 0.00 0.00 0.00 0.00 0.00 0.00 0.00 0.00 0.00 0.00 0.00 0.00 0.00 0.00 0.00 0.00 0.00 0.00 0.00 0.00 0.00 0.00 0.00 0.00 0.00 0.00 0.00 0.00 0.00 0.00 0.00 0.00
0.00 0.00 0.00 0.00 0.00 0.00 0.00 0.00 0.00 0.00 0.00 0.00 0.00 0.00 0.00 0.00 0.00 0.00 0.00 0.00 0.00 0.00 0.00 0.00 0.00 0.00 0.00 0.00 0.00 0.00 0.00 0.00 0.00 0.00 0.00 0.00 0.00 0.00 0.00 0.00 0.00 0.00 0.00 0.00
0.00 0.00 0.00 0.00 0.00 0.00 0.00 0.00 0.00 0.00 0.00 0.00 0.00 0.00 0.00 0.00 0.00 0.00 0.00 0.00 0.00 0.00 0.00 0.00 0.00 0.00 0.00 0.00 0.00 0.00 0.00 0.00 0.00 0.00 0.00 0.00 0.00 0.00 0.00 0.00 0.00 0.00 0.00 0.00
0.00 0.00 0.00 0.00 0.00 0.00 0.00 0.00 0.00 0.00 0.00 0.00 0.00 0.00 0.00 0.00 0.00 0.00 0.00 0.00 0.00 0.00 0.00 0.00 0.00 0.00 0.00 0.00 0.00 0.00 0.00 0.00 0.00 0.00 0.00 0.00 0.00 0.00 0.00 0.00 0.00 0.00 0.00 0.00
0.00 0.00 0.00 0.00 0.00 0.00 0.00 0.00 0.00 0.00 0.00 0.00 0.00 0.00 0.00 0.00 0.00 0.00 0.00 0.00 0.00 0.00 0.00 0.00 0.00 0.00 0.00 0.00 0.00 0.00 0.00 0.00 0.00 0.00 0.00 0.00 0.00 0.00 0.00 0.00 0.00 0.00 0.00 0.00
0.00 0.00 0.00 0.00 0.00 0.00 0.00 0.00 0.00 0.00 0.00 0.00 0.00 0.00 0.00 0.00 0.00 0.00 0.00 0.00 0.00 0.00 0.00 0.00 0.00 0.00 0.00 0.00 0.00 0.00 0.00 0.00 0.00 0.00 0.00 0.00 0.00 0.00 0.00 0.00 0.00 0.00 0.00 0.00
0.00 0.00 0.00 0.00 0.00 0.00 0.00 0.00 0.00 0.00 0.00 0.00 0.00 0.00 0.00 0.00 0.00 0.00 0.00 0.00 0.00 0.00 0.00 0.00 0.00 0.00 0.00 0.00 0.00 0.00 0.00 0.00 0.00 0.00 0.00 0.00 0.00 0.00 0.00 0.00 0.00 0.00 0.00 0.00
0.00 0.00 0.00 0.00 0.00 0.00 0.00 0.00 0.00 0.00 0.00 0.00 0.00 0.00 0.00 0.00 0.00 0.00 0.00 0.00 0.00 0.00 0.00 0.00 0.00 0.00 0.00 0.00 0.00 0.00 0.00 0.00 0.00 0.00 0.00 0.00 0.00 0.00 0.00 0.00 0.00 0.00 0.00 0.00
0.00 0.00 0.00 0.00 0.00 0.00 0.00 0.00 0.00 0.00 0.00 0.00 0.00 0.00 0.00 0.00 0.00 0.00 0.00 0.00 0.00 0.00 0.00 0.00 0.00 0.00 0.00 0.00 0.00 0.00 0.00 0.00 0.00 0.00 0.00 0.00 0.00 0.00 0.00 0.00 0.00 0.00 0.00 0.00
0.00 0.00 0.00 0.00 0.00 0.00 0.00 0.00 0.00 0.00 0.00 0.00 0.00 0.00 0.00 0.00 0.00 0.00 0.00 0.00 0.00 0.00 0.00 0.00 0.00 0.00 0.00 0.00 0.00 0.00 0.00 0.00 0.00 0.00 0.00 0.00 0.00 0.00 0.00 0.00 0.00 0.00 0.00 0.00
0.00 0.00 0.00 0.00 0.00 0.00 0.00 0.00 0.00 0.00 0.00 0.00 0.00 0.00 0.00 0.00 0.00 0.00 0.00 0.00 0.00 0.00 0.00 0.00 0.00 0.00 0.00 0.00 0.00 0.00 0.00 0.00 0.00 0.00 0.00 0.00 0.00 0.00 0.00 0.00 0.00 0.00 0.00 0.00
0.00 0.00 0.00 0.00 0.00 0.00 0.00 0.00 0.00 0.00 0.00 0.00 0.00 0.00 0.00 0.00 0.00 0.00 0.00 0.00 0.00 0.00 0.00 0.00 0.00 0.00 0.00 0.00 0.00 0.00 0.00 0.00 0.00 0.00 0.00 0.00 0.00 0.00 0.00 0.00 0.00 0.00 0.00 0.00
0.00 0.01 0.00 0.00 0.00 0.00 0.00 0.00 0.00 0.00 0.00 0.00 0.00 0.00 0.00 0.00 0.00 0.00 0.00 0.00 0.00 0.00 0.00 0.00 0.00 0.00 0.00 0.00 0.00 0.00 0.00 0.00 0.00 0.00 0.00 0.00 0.00 0.00 0.00 0.00 0.00 0.00 0.00 0.00
0.00 0.00 0.00 0.00 0.00 0.00 0.00 0.00 0.00 0.00 0.00 0.00 0.00 0.00 0.00 0.00 0.00 0.00 0.00 0.00 0.00 0.00 0.00 0.00 0.01 0.00 0.00 0.01 0.00 0.00 0.00 0.01 0.00 0.00 0.00 0.00 0.00 0.00 0.00 0.00 0.00 0.00 0.00 0.00
0.00 0.00 0.00 0.00 0.00 0.00 0.00 0.00 0.00 0.00 0.00 0.00 0.00 0.00 0.00 0.00 0.00 0.00 0.00 0.00 0.00 0.00 0.00 0.03 0.03 0.01 0.05 0.12 0.24 0.20 0.12 0.07 0.03 0.01 0.00 0.00 0.00 0.00 0.00 0.00 0.00 0.00 0.00 0.00
0.00 0.00 0.00 0.00 0.00 0.00 0.00 0.00 0.00 0.00 0.00 0.00 0.00 0.00 0.00 0.00 0.00 0.00 0.00 0.00 0.00 0.02 0.06 0.13 0.44 0.47 0.55 0.49 0.33 0.16 0.08 0.04 0.03 0.01 0.01 0.00 0.00 0.00 0.00 0.00 0.00 0.00 0.00 0.00
MSLP
1000.00 999.28 998.02 997.15 998.25 998.55 998.63 998.38 998.45 998.88 999.30 999.50 999.15 999.11 999.08 1000.15 1000.80 1000.98 1001.61 1002.13 1002.97 1003.61 1004.21 1004.80 1005.63 1006.11 1006.61 1007.17 1007.91 1008.78 1009.37 1009.73 1010.45 1010.72 1010.91 1010.98 1010.68 1010.81 1011.30 1011.08 1011.46 1012.18 1012.63 1012.42
999.29 998.50 997.86 997.51 998.42 998.66 997.96 997.88 999.25 998.54 998.89 999.15 998.98 998.83 998.74 999.18 999.91 1000.22 1000.90 1001.44 1001.88 1002.57 1003.27 1004.13 1004.96 1005.44 1005.88 1006.54 1007.41 1008.12 1008.82 1009.42 1010.00 1010.15 1010.61 1010.52 1010.41 1010.50 1010.88 1010.94 1011.17 1011.54 1012.16 1012.53
998.46 997.68 998.15 997.81 998.32 998.08 997.21 997.80 997.99 997.93 998.45 998.76 999.40 1000.58 998.98 998.95 999.09 999.63 999.93 1000.60 1000.97 1001.53 1002.26 1003.39 1004.03 1004.53 1005.17 1005.65 1006.72 1007.47 1008.10 1008.83 1009.50 1009.87 1010.03 1010.78 1011.09 1010.88 1010.78 1011.31 1011.65 1011.75 1011.91 1011.84
997.95 998.05 997.45 997.42 998.05 997.80 996.91 998.06 997.90 997.99 998.38 999.89 999.81 999.89 998.21 998.71 998.58 998.79 999.24 999.65 1000.23 1000.75 1001.51 1002.28 1003.20 1003.89 1004.29 1004.87 1005.80 1006.65 1007.46 1008.20 1008.92 1009.50 1009.58 1010.10 1010.01 1010.04 1009.91 1010.20 1010.50 1011.20 1011.35 1011.39
997.56 997.85 997.50 997.44 997.48 997.60 997.12 997.97 997.87 997.82 997.94 997.53 999.12 999.42 1000.79 998.21 997.82 997.84 998.21 998.53 999.33 999.88 1000.76 1001.26 1001.89 1002.70 1003.20 1003.95 1004.88 1005.72 1006.67 1007.73 1008.47 1009.08 1009.58 1009.60 1010.08 1009.73 1009.89 1010.38 1011.14 1011.52 1011.33 1011.26
997.82 997.38 997.41 997.13 997.49 997.39 998.03 998.15 997.51 997.28 997.09 997.95 1000.83 998.67 1000.94 1000.37 996.90 996.46 996.51 997.51 998.31 999.18 999.73 1000.59 1001.33 1001.78 1002.46 1003.25 1004.23 1005.06 1006.23 1007.35 1008.18 1008.73 1009.36 1009.58 1009.69 1010.06 1010.27 1010.88 1011.06 1011.07 1011.26 1011.56
997.44 997.52 997.25 997.35 997.15 996.90 997.72 997.57 996.40 996.30 996.87 999.48 999.72 998.34 998.32 996.67 996.49 996.00 996.63 997.36 997.76 998.42 999.46 999.97 1000.76 1001.38 1002.07 1002.62 1003.65 1004.55 1005.77 1007.02 1007.83 1008.44 1008.99 1009.59 1009.94 1010.47 1010.84 1010.94 1010.61 1011.09 1011.00 1011.02
996.31 996.08 996.80 996.91 996.93 996.37 996.73 996.81 995.57 995.47 996.05 997.67 998.10 996.47 996.99 996.32 996.13 996.26 996.74 997.58 998.20 998.48 999.02 999.79 1000.53 1001.26 1001.95 1002.51 1003.17 1004.23 1005.51 1006.74 1007.51 1008.34 1008.99 1009.56 1010.21 1010.26 1010.21 1010.70 1011.04 1010.72 1010.72 1010.75
995.18 995.19 995.24 996.24 996.55 996.89 996.16 995.95 995.96 995.38 994.89 995.53 995.72 996.34 995.01 995.28 995.85 996.20 996.74 997.76 998.39 998.84 999.21 1000.02 1000.50 1001.29 1001.86 1002.52 1003.21 1004.30 1005.43 1006.62 1007.38 1008.08 1008.94 1009.70 1010.16 1010.29 1010.31 1010.96 1011.16 1010.83 1010.92 1010.74
995.84 995.41 995.11 995.65 996.53 996.48 996.21 995.61 995.91 995.66 995.39 995.16 996.39 995.56 994.41 995.31 995.08 995.67 996.38 997.56 998.46 999.36 999.95 1000.40 1000.81 1001.37 1002.15 1002.58 1003.31 1004.39 1005.52 1006.41 1007.22 1007.77 1008.79 1009.30 1009.65 1010.21 1010.77 1010.83 1010.82 1010.92 1011.20 1011.40
996.52 995.81 995.22 995.57 995.77 995.37 995.97 995.90 995.79 995.02 996.56 994.50 994.48 995.99 997.62 994.39 995.03 995.62 996.10 997.29 998.62 999.50 1000.06 1000.68 1001.27 1001.85 1002.24 1002.60 1003.42 1004.32 1005.53 1006.38 1007.32 1007.88 1008.50 1009.11 1009.62 1010.20 1010.51 1010.53 1010.89 1010.99 1011.08 1011.15
996.76 995.95 995.22 994.58 995.22 995.74 995.55 995.68 995.66 994.87 994.93 994.57 994.34 993.97 993.44 993.98 994.66 995.68 996.13 997.27 998.53 999.49 1000.36 1001.00 1001.60 1002.22 1002.66 1003.11 1003.83 1004.72 1005.68 1006.63 1007.35 1007.96 1008.51 1009.36 1009.94 1010.01 1010.00 1010.36 1010.80 1011.10 1011.11 1011.53
996.71 996.39 995.38 994.80 994.65 995.18 995.15 995.04 994.80 994.77 993.94 993.76 993.61 993.34 994.09 993.92 995.06 995.88 996.24 997.37 998.65 999.70 1000.55 1001.04 1001.82 1002.62 1003.48 1004.06 1004.67 1005.50 1006.24 1006.96 1007.71 1008.25 1008.65 1009.02 1009.35 1009.51 1010.03 1010.48 1010.80 1011.12 1011.30 1011.37
996.94 996.09 995.35 994.26 994.11 994.15 994.69 994.84 994.74 994.20 993.51 993.17 993.05 993.08 993.10 993.60 994.42 995.65 996.36 997.69 998.94 1000.03 1000.72 1001.28 1002.14 1003.08 1003.84 1004.51 1005.27 1005.93 1006.57 1007.22 1007.73 1008.18 1008.67 1009.10 1009.45 1009.81 1010.21 1010.75 1011.04 1011.29 1011.54 1011.69
997.03 995.99 995.51 994.88 994.24 993.92 994.02 994.28 994.64 994.34 993.99 993.36 992.83 993.24 992.77 993.50 994.00 994.93 996.08 997.53 998.72 999.85 1000.57 1001.20 1002.16 1003.14 1004.00 1004.84 1005.59 1006.19 1006.78 1007.34 1007.94 1008.52 1009.02 1009.56 1009.98 1010.23 1010.75 1011.23 1011.72 1012.02 1012.17 1012.39
996.37 995.91 995.45 994.92 994.49 994.29 993.72 993.59 993.74 994.00 994.04 993.83 993.57 993.29 993.26 993.53 993.85 994.52 995.59 996.87 998.06 999.18 1000.03 1000.82 1001.81 1002.84 1003.85 1004.74 1005.49 1006.30 1007.02 1007.69 1008.32 1008.82 1009.29 1010.01 1010.57 1011.00 1011.14 1011.44 1011.82 1012.23 1012.61 1012.81
995.71 995.45 994.94 994.51 994.31 994.05 993.54 993.38 992.99 993.19 993.35 993.21 993.38 993.61 993.90 993.70 993.65 993.93 994.90 996.06 997.36 998.49 999.45 1000.44 1001.66 1002.61 1003.31 1004.30 1005.26 1006.18 1007.02 1007.76 1008.46 1009.06 1009.71 1010.28 1010.64 1011.00 1011.39 1011.74 1012.07 1012.37 1012.49 1012.84
994.92 995.27 995.06 994.59 994.26 993.61 993.11 992.76 993.12 992.92 993.09 993.33 993.55 993.84 993.86 993.75 993.53 993.97 994.77 995.36 996.45 997.71 998.85 1000.16 1001.58 1002.40 1003.01 1003.89 1004.94 1005.99 1007.05 1007.91 1008.61 1009.30 1009.93 1010.42 1010.71 1011.14 1011.65 1011.98 1012.14 1012.68 1012.85 1013.09
994.84 994.94 994.99 994.74 994.17 993.71 993.01 992.49 992.15 992.69 993.07 993.67 993.57 993.86 994.25 993.99 993.84 994.31 994.67 994.52 995.51 996.94 998.23 999.63 1000.89 1001.88 1002.89 1003.70 1004.82 1005.95 1006.84 1007.79 1008.55 1009.22 1009.94 1010.54 1010.89 1011.29 1011.73 1012.13 1012.56 1012.96 1013.24 1013.51
995.42 995.10 995.77 996.17 994.79 993.56 992.81 992.20 992.88 993.20 993.58 993.89 994.28 994.58 995.13 994.92 994.57 994.71 995.53 995.50 995.52 996.51 997.89 999.44 1000.42 1001.57 1002.88 1003.77 1004.81 1005.84 1006.60 1007.46 1008.25 1009.01 1009.86 1010.47 1010.89 1011.40 1011.90 1012.60 1013.10 1013.29 1013.44 1013.54
996.17 996.21 995.63 995.84 997.21 995.52 994.18 994.20 993.99 994.25 995.42 995.71 996.01 996.32 996.38 996.12 996.28 995.84 995.60 995.88 995.60 996.46 997.75 999.25 1000.38 1001.44 1002.72 1003.89 1004.83 1005.90 1006.70 1007.52 1008.31 1009.34 1010.20 1010.85 1011.35 1011.69 1012.23 1012.86 1013.26 1013.47 1013.48 1013.32
998.60 998.45 997.08 996.47 996.50 997.40 996.17 995.91 995.09 995.58 995.77 996.50 996.96 996.95 997.14 997.14 996.79 996.41 996.20 996.16 996.04 996.69 997.97 999.16 1000.20 1001.50 1002.72 1003.88 1004.89 1005.94 1007.37 1008.00 1009.01 1009.90 1010.51 1010.98 1011.50 1011.77 1012.46 1013.01 1013.33 1013.50 1013.58 1013.62
1000.57 1001.69 1002.35 997.33 998.28 1000.14 999.86 998.12 994.82 996.36 996.66 997.04 997.47 997.35 997.38 997.22 996.96 996.74 996.78 996.46 996.57 997.22 998.40 999.42 1000.57 1001.83 1002.74 1003.85 1004.88 1006.23 1007.94 1008.90 1009.77 1010.40 1010.92 1011.39 1011.72 1011.93 1012.63 1013.12 1013.34 1013.46 1013.66 1013.40
999.58 1000.51 999.27 997.54 998.33 999.36 999.04 998.09 997.65 997.53 997.60 997.60 997.76 997.85 997.73 997.54 997.34 997.13 997.05 996.88 997.19 997.81 998.89 999.95 1001.34 1002.29 1003.34 1004.20 1005.14 1006.55 1008.13 1009.00 1009.81 1010.50 1010.92 1011.40 1011.49 1012.08 1012.48 1012.81 1012.76 1012.67 1012.58 1012.64
998.08 1000.90 999.19 998.15 997.59 997.68 996.74 997.94 998.03 998.20 998.20 998.20 998.29 998.18 998.05 997.99 997.66 997.69 997.45 997.72 997.71 998.51 999.55 1000.79 1001.89 1002.84 1003.97 1004.82 1006.37 1007.62 1008.54 1009.58 1010.66 1011.52 1011.97 1012.61 1011.71 1011.81 1012.36 1012.40 1012.66 1012.88 1013.41 1013.80
998.00 997.66 997.92 997.32 997.62 998.45 998.14 998.23 998.67 998.47 998.55 998.68 998.75 998.58 998.50 998.41 998.23 998.25 998.10 998.32 998.49 999.05 1000.30 1001.50 1002.64 1003.53 1005.07 1005.70 1007.22 1008.81 1009.99 1009.55 1010.60 1011.40 1012.22 1011.85 1011.54 1011.70 1012.17 1012.48 1013.09 1013.80 1013.92 1014.10
Thickness
5855 5839 5843 5872 5863 5858 5855 5852 5843 5850 5860 5847 5846 5848 5859 5857 5851 5848 5846 5844 5839 5836 5841 5841 5835 5834 5830 5827 5821 5815 5810 5811 5806 5802 5797 5796 5795 5796 5792 5795 5790 5782 5774 5775
5843 5831 5867 5884 5863 5853 5862 5852 5824 5855 5863 5855 5853 5852 5866 5866 5857 5857 5850 5848 5847 5845 5844 5841 5838 5836 5834 5831 5826 5821 5816 5813 5810 5808 5802 5802 5800 5799 5795 5794 5789 5783 5775 5769
5834 5858 5868 5866 5851 5850 5866 5847 5843 5845 5859 5867 5853 5804 5845 5865 5868 5864 5864 5860 5858 5852 5847 5841 5840 5840 5839 5837 5832 5827 5823 5818 5814 5810 5807 5798 5795 5794 5790 5784 5780 5779 5774 5771
5848 5863 5864 5861 5843 5858 5850 5861 5857 5849 5843 5772 5841 5787 5823 5857 5856 5860 5861 5862 5860 5859 5857 5853 5845 5843 5845 5844 5842 5836 5831 5824 5819 5813 5808 5799 5796 5790 5795 5791 5791 5782 5773 5768
5842 5845 5848 5843 5850 5864 5855 5860 5854 5852 5845 5860 5822 5823 5790 5864 5850 5855 5862 5865 5865 5865 5861 5857 5854 5855 5856 5854 5847 5843 5837 5828 5821 5815 5809 5803 5795 5799 5796 5789 5779 5775 5773 5765
5848 5873 5861 5860 5863 5868 5863 5850 5857 5861 5862 5830 5783 5847 5792 5763 5861 5868 5878 5874 5872 5869 5869 5865 5863 5865 5860 5858 5851 5845 5836 5828 5822 5817 5809 5803 5799 5793 5788 5782 5778 5777 5773 5765
5840 5841 5861 5866 5847 5869 5852 5840 5825 5823 5824 5771 5795 5835 5833 5866 5875 5879 5871 5872 5876 5877 5871 5868 5861 5860 5859 5857 5852 5847 5837 5825 5822 5816 5810 5803 5798 5791 5784 5781 5782 5774 5774 5773
5820 5817 5844 5862 5849 5849 5848 5848 5839 5806 5805 5812 5834 5841 5843 5873 5883 5884 5881 5874 5872 5872 5873 5868 5864 5860 5858 5857 5855 5848 5836 5824 5821 5814 5807 5803 5797 5794 5792 5786 5780 5780 5778 5778
5835 5830 5872 5861 5863 5857 5850 5841 5872 5853 5871 5849 5860 5846 5890 5888 5872 5874 5874 5868 5864 5866 5867 5862 5863 5860 5857 5855 5853 5846 5835 5825 5820 5814 5806 5799 5795 5791 5789 5782 5779 5779 5777 5777
5842 5816 5860 5858 5860 5861 5852 5880 5836 5850 5815 5815 5818 5839 5856 5853 5864 5872 5870 5866 5864 5862 5860 5859 5859 5858 5855 5854 5852 5845 5835 5826 5820 5816 5806 5800 5797 5792 5785 5783 5780 5777 5773 5770
5841 5834 5839 5850 5836 5840 5840 5836 5847 5864 5813 5832 5831 5818 5821 5871 5869 5868 5873 5873 5865 5860 5858 5857 5855 5855 5854 5854 5848 5842 5832 5825 5817 5813 5807 5800 5795 5789 5785 5782 5778 5776 5774 5772
5836 5833 5818 5840 5859 5861 5856 5843 5847 5835 5827 5852 5848 5846 5902 5890 5883 5877 5876 5873 5870 5865 5859 5857 5853 5851 5848 5845 5841 5835 5828 5819 5813 5808 5803 5795 5789 5787 5786 5782 5777 5774 5771 5767
5831 5814 5802 5818 5846 5851 5838 5852 5863 5864 5871 5847 5831 5848 5890 5892 5875 5874 5873 5871 5865 5861 5856 5856 5850 5844 5837 5835 5831 5825 5820 5814 5808 5803 5799 5795 5790 5787 5782 5777 5775 5771 5767 5765
5831 5821 5814 5813 5828 5848 5826 5838 5852 5859 5847 5852 5856 5862 5879 5881 5874 5868 5869 5866 5860 5853 5851 5850 5844 5837 5834 5830 5824 5820 5815 5812 5807 5802 5796 5790 5786 5782 5778 5773 5770 5765 5760 5756
5820 5802 5820 5833 5845 5850 5844 5838 5838 5838 5852 5842 5861 5853 5877 5879 5883 5873 5872 5864 5856 5849 5847 5847 5841 5835 5831 5825 5820 5816 5812 5808 5803 5795 5789 5782 5778 5775 5769 5763 5757 5753 5749 5744
5824 5798 5817 5812 5835 5837 5834 5845 5846 5845 5848 5851 5856 5853 5886 5890 5893 5880 5872 5863 5855 5850 5849 5849 5844 5836 5830 5824 5819 5812 5806 5800 5795 5788 5782 5775 5768 5764 5762 5758 5752 5746 5740 5735
5810 5809 5810 5798 5829 5828 5812 5832 5847 5851 5860 5861 5838 5859 5875 5874 5881 5881 5874 5868 5859 5855 5853 5849 5841 5836 5834 5826 5819 5808 5802 5797 5789 5782 5774 5767 5763 5758 5754 5749 5743 5738 5734 5727
5815 5808 5814 5803 5819 5782 5834 5865 5855 5852 5857 5864 5862 5862 5867 5871 5884 5880 5881 5872 5865 5860 5855 5849 5841 5837 5835 5829 5820 5811 5801 5791 5783 5774 5766 5761 5757 5751 5745 5739 5734 5727 5723 5716
5835 5818 5803 5796 5803 5823 5836 5851 5854 5843 5842 5860 5859 5859 5858 5867 5873 5866 5876 5883 5875 5866 5860 5853 5847 5841 5832 5825 5817 5806 5796 5787 5777 5768 5761 5755 5749 5742 5737 5730 5724 5717 5710 5703
5826 5829 5800 5774 5790 5789 5838 5863 5868 5862 5817 5858 5853 5847 5842 5850 5830 5848 5860 5871 5873 5869 5861 5850 5846 5839 5826 5820 5812 5799 5791 5782 5773 5767 5757 5750 5744 5737 5729 5720 5712 5708 5701 5696
5795 5797 5794 5797 5741 5800 5829 5843 5854 5800 5804 5835 5836 5832 5831 5827 5833 5848 5860 5861 5870 5866 5857 5850 5840 5830 5820 5814 5805 5791 5785 5776 5772 5761 5750 5741 5734 5728 5721 5713 5706 5700 5695 5692
5776 5780 5790 5800 5787 5757 5817 5824 5809 5818 5831 5827 5824 5828 5824 5828 5835 5841 5848 5852 5858 5854 5849 5844 5833 5822 5816 5808 5797 5785 5770 5769 5760 5749 5741 5733 5727 5723 5714 5705 5698 5693 5687 5680
5730 5710 5704 5778 5773 5755 5774 5773 5817 5824 5819 5818 5817 5825 5827 5826 5830 5835 5836 5843 5847 5844 5839 5836 5824 5813 5808 5801 5793 5776 5761 5754 5744 5736 5728 5722 5718 5715 5706 5697 5690 5684 5677 5673
5760 5749 5763 5780 5777 5750 5755 5781 5804 5811 5810 5815 5817 5818 5821 5820 5826 5828 5832 5835 5836 5834 5828 5824 5808 5804 5793 5788 5782 5768 5753 5744 5736 5726 5718 5713 5708 5703 5699 5693 5689 5683 5679 5675
5766 5724 5723 5766 5781 5784 5789 5785 5794 5798 5802 5803 5807 5810 5811 5814 5817 5820 5824 5825 5827 5824 5821 5807 5799 5793 5780 5773 5759 5746 5737 5725 5715 5710 5703 5695 5699 5696 5690 5687 5681 5674 5665 5656
5769 5759 5749 5755 5771 5765 5768 5781 5786 5785 5787 5791 5791 5794 5801 5804 5806 5811 5814 5817 5818 5814 5804 5795 5790 5779 5759 5741 5731 5722 5713 5719 5709 5701 5692 5693 5694 5688 5682 5677 5669 5655 5651 5645